Location: Bletchingley
(51.2333°N, 0.1000°W)
Time: 06:44:51
(UTC+00:00)

Cosmos 1626 - Pass Details

Date: 18 September 2020
Orbit: 490 x 495 km, 82.5° (Epoch: 19 October)

Event Time Altitude Azimuth Distance (km) Brightness Sun altitude
Rises 20:12:19 0° 353° (N) 2,591 6.3 -19.6°
Reaches altitude 10° 20:14:30 10° 359° (N) 1,702 5.2 -19.9°
Enters shadow 20:17:44 48° 52° (NE) 660 2.5 -20.3°
